Home > Weather > Evansville > Past weeks

Flag for USA Past Weather in Evansville, Indiana, USA — Yesterday and Last 2 Weeks

Now
79 °F

Sunny.


Feels Like: 82 °F
Forecast: 77 / 90 °F
Wind: 3 mph from Southeast

Location: Evansville Regional Airport

Current Time: Jul 25, 2016 at 9:00:04 AM

Latest Report: Jul 25, 2016 at 7:54 AM


Visibility: 10 mi

Pressure: 29.97 "Hg

Humidity: 79%

Dew Point: 72 °F

Location of EvansvilleLocation

Past Weather in Evansville — Graph

°F

Evansville Temperature Yesterday

Maximum temperature yesterday: 92 °F (at 3:54 PM)
Minimum temperature yesterday: 76 °F (at 5:54 AM)
Average temperature yesterday: 84 °F

High & Low Weather Summary for the Past Weeks

 TemperatureHumidityPressure
High92 °F (Jul 19, 1:54 PM)97% (Jul 12, 10:54 AM)30.24 "Hg (Jul 12, 10:54 AM)
Low67 °F (Jul 16, 5:54 AM)45% (Jul 11, 2:54 PM)29.89 "Hg (Jul 14, 3:54 PM)
Average79 °F78%30.04 "Hg
* Reported Jul 10 6:54 AM — Jul 25 6:54 AM, Evansville, Weather by CustomWeather, © 2016

Note: Actual official high and low records may vary slightly from our data, if they occured in-between our weather recording intervals... More about our weather records

Advertising

Evansville Weather History for the Previous 24 Hours

Scroll right to see more
 ConditionsComfort  
Time TempWeatherWind HumidityBarometerVisibility
6:54 AM
Mon, Jul 25
76 °FSunny.No wind82%29.98 "Hg10 mi
5:54 AM75 °FSunny.No wind88%29.98 "Hg10 mi
4:54 AM76 °FPassing clouds.5 mph85%29.98 "Hg10 mi
3:54 AM79 °FPartly cloudy.7 mph88%29.98 "Hg10 mi
2:54 AM78 °FClear.3 mph90%29.98 "Hg10 mi
1:54 AM80 °FClear.No wind87%29.98 "Hg10 mi
12:54 AM80 °FClear.No wind87%29.98 "Hg10 mi
11:54 PM
Sun, Jul 24
82 °FClear.3 mph79%29.96 "Hg10 mi
10:54 PM82 °FClear.7 mph79%29.94 "Hg10 mi
9:54 PM84 °FClear.No wind74%29.95 "Hg10 mi
8:54 PM85 °FClear.3 mph72%29.94 "Hg10 mi
7:54 PM87 °FSunny.5 mph69%29.93 "Hg10 mi
6:54 PM89 °FPassing clouds.6 mph63%29.93 "Hg10 mi
5:54 PM90 °FSunny.7 mph63%29.93 "Hg10 mi
4:54 PM91 °FScattered clouds.9 mph61%29.94 "Hg10 mi
3:54 PM92 °FScattered clouds.9 mph58%29.94 "Hg10 mi
2:54 PM91 °FScattered clouds.7 mph60%29.96 "Hg10 mi
1:54 PM91 °FScattered clouds.9 mph60%29.97 "Hg10 mi
12:54 PM90 °FScattered clouds.12 mph63%29.98 "Hg10 mi
11:54 AM89 °FPassing clouds.8 mph65%29.99 "Hg10 mi
10:54 AM87 °FScattered clouds.9 mph69%29.99 "Hg10 mi
9:54 AM85 °FSunny.8 mph75%29.98 "Hg10 mi
Weather by CustomWeather, © 2016

See weather overviewHow to use our weather pages